Back to catalog

STARLINK-31442

AliveCommunicationsVLEO
NORAD 59859·PAYLOAD·🇺🇸 United States

Launched May 24, 2024 from Cape Canaveral Space Force Station

Loading…

Next Passes (next 24 hours)

TLE

FreshSource: CelesTrak SupGP

Epoch: Sep 14, 2026, 20:46 UTC

1 59859C 24098B   26257.86576389 -.00016773  00000+0 -60765-3 0  2572
2 59859  43.0006 293.5286 0001366 266.4428  65.6663 15.27580196    11

Track STARLINK-31442 in real time with AllMySat

Download on the App Store